Wind_Speed
22 21 21 20 20 20 20 21 22 22 22 21 20 20 21 22 23 24 23 24 24 24 25 25 24 24 23 23 23 22 21 21 21 20 19 19 19 19 18 18 18 18 17 17 17 16 16 16 16 15 15 15 15 16 16 17 18 19 20 20 20 20 22 24 25 24 24 24 25 26 26 26 26 27 27 28 28 28 28 28 28 28 27 27 26
24 23 23 22 22 22 21 22 22 23 23 22 21 21 22 23 24 25 25 25 25 26 26 26 26 25 24 24 24 23 22 22 22 21 21 20 20 19 19 19 19 19 18 18 18 18 17 17 16 16 16 14 14 15 15 15 16 17 19 19 20 20 21 23 24 24 24 25 25 26 25 24 25 25 26 27 28 28 29 29 29 29 29 28 28
26 25 25 24 24 23 23 23 23 23 24 24 23 22 23 24 25 26 26 26 26 27 27 27 27 26 25 25 25 24 23 22 22 22 22 21 21 20 20 20 20 20 20 20 19 19 18 18 17 17 17 16 15 15 14 14 14 15 17 18 19 20 21 22 22 23 24 25 26 25 24 24 24 24 25 26 27 28 29 29 30 30 30 30 30
28 27 27 26 25 25 25 25 24 24 25 26 25 24 24 25 26 27 28 27 27 28 28 28 28 27 27 27 26 25 25 24 23 23 23 22 22 21 21 21 21 21 21 21 21 20 20 19 19 18 18 17 17 16 15 15 14 15 16 16 17 19 21 22 22 22 24 25 25 25 25 24 24 24 25 25 26 27 28 29 30 31 31 31 31
30 30 29 28 28 27 27 27 27 27 27 28 27 26 26 26 27 28 29 29 29 29 29 29 28 28 28 28 28 27 27 26 25 24 24 24 23 23 22 22 22 22 22 22 22 22 21 20 20 19 19 19 18 17 16 16 15 15 15 17 17 18 19 21 22 23 23 24 25 25 25 25 25 25 26 26 27 27 28 29 30 31 31 32 32
31 32 32 31 30 30 29 29 29 29 30 30 30 29 28 28 28 28 30 30 30 30 30 30 29 30 30 30 30 30 29 28 27 26 26 25 25 24 24 23 23 24 24 24 24 23 22 21 21 20 20 20 20 19 18 18 17 16 16 16 17 18 18 20 22 23 24 24 24 25 25 25 25 26 27 27 27 28 28 29 29 30 31 31 32
33 34 34 34 33 32 31 31 31 31 33 33 33 32 30 30 29 29 30 32 32 32 31 31 31 31 32 32 32 32 31 30 29 28 28 28 27 26 25 25 25 25 25 25 25 24 24 23 22 22 21 21 21 21 20 19 19 18 17 17 17 17 18 19 21 23 23 24 25 25 25 26 26 26 27 28 28 29 29 29 30 30 31 32 32
36 36 36 36 35 34 33 33 33 33 34 35 35 34 33 32 32 32 32 33 34 34 33 32 32 32 33 34 34 34 33 33 32 31 31 30 29 28 27 27 27 27 27 27 27 26 26 25 24 23 23 22 22 21 21 20 20 19 18 18 17 17 18 19 21 22 23 24 25 25 26 27 27 27 28 29 29 29 29 30 30 31 31 32 32
37 37 37 37 36 36 35 35 35 35 35 36 36 36 36 35 35 34 34 34 35 36 35 34 33 34 35 35 36 36 35 35 34 34 33 32 30 30 30 29 29 29 29 29 28 28 27 27 26 25 24 24 23 23 22 21 20 19 19 19 18 17 17 19 20 21 23 24 24 25 26 27 27 28 28 29 29 29 30 30 31 31 31 31 32
38 38 37 37 37 37 36 36 36 36 36 36 36 37 38 37 37 36 36 36 36 37 37 37 36 36 36 37 38 38 37 37 36 35 35 33 32 32 31 31 31 31 31 30 30 30 29 29 28 28 26 26 25 24 23 22 21 20 19 19 19 18 17 18 20 21 23 24 25 25 26 26 27 28 29 29 29 30 30 30 31 31 31 31 32
37 37 37 37 37 37 37 37 37 37 37 37 37 38 38 38 38 38 38 38 38 38 39 39 39 39 38 39 39 40 39 38 37 37 36 35 34 33 33 33 33 33 32 32 32 31 31 31 30 30 29 28 27 26 25 24 22 21 20 20 19 19 18 18 19 22 23 24 25 25 26 26 26 27 28 29 29 30 30 31 31 31 31 31 32
34 35 36 36 37 37 38 38 38 38 39 39 39 39 39 40 40 40 40 41 41 41 41 42 42 41 41 41 41 41 40 40 39 38 37 36 36 35 35 34 34 33 33 33 33 33 33 33 32 31 30 29 28 27 26 25 24 23 22 21 20 20 19 18 19 23 23 23 25 25 26 26 26 27 27 28 29 30 30 31 31 31 31 31 31
30 32 34 35 36 37 37 38 39 39 39 39 39 40 40 40 41 42 43 43 43 43 43 43 44 44 44 43 43 42 41 42 41 39 38 38 38 38 37 36 35 34 33 33 33 34 34 34 34 33 32 31 30 29 27 26 25 24 23 22 21 21 20 18 20 24 24 23 24 25 25 26 26 27 28 29 29 30 30 31 31 32 31 31 31
27 28 30 31 33 34 36 38 39 40 40 40 40 40 40 40 41 42 43 44 44 44 44 44 45 45 45 45 45 44 44 44 42 40 41 41 40 39 38 37 36 35 35 34 34 35 35 36 35 35 33 32 31 30 29 28 26 26 25 24 23 22 21 20 20 24 25 23 23 24 24 25 26 27 28 29 30 30 31 31 32 32 32 32 31
25 26 27 28 30 31 33 35 37 39 40 41 42 42 42 42 41 42 42 44 45 45 45 45 46 46 46 47 47 47 47 45 42 42 42 41 40 39 39 38 37 37 37 36 35 35 36 36 36 35 35 33 32 30 29 29 28 27 26 26 25 24 23 22 21 24 25 24 24 23 24 25 26 27 28 29 30 31 31 32 32 32 32 32 31
21 23 24 25 26 27 29 31 33 35 37 38 40 41 42 43 43 43 43 44 45 45 45 46 47 46 47 49 49 50 50 46 44 44 43 43 42 41 40 39 38 38 38 37 36 36 36 37 36 36 36 34 33 32 31 30 29 28 28 27 26 26 25 24 22 23 25 25 25 24 24 24 25 26 28 29 30 31 32 32 32 32 32 32 32
19 20 20 21 22 22 23 25 27 29 32 34 35 36 38 40 41 43 43 44 45 45 46 47 48 47 48 50 50 51 51 48 46 46 46 45 44 43 42 41 40 40 39 38 37 37 37 37 37 36 36 35 34 33 33 32 31 30 29 28 27 27 26 25 24 24 24 26 26 25 25 24 25 26 27 29 30 31 32 32 32 33 33 33 33
19 19 20 20 20 20 20 20 21 23 25 27 30 32 34 35 37 39 40 42 44 46 47 47 48 48 49 51 51 52 52 51 50 50 48 47 46 45 44 43 42 42 41 40 38 38 39 39 38 37 36 36 36 35 34 34 33 32 31 29 28 28 27 26 25 25 25 26 26 26 25 25 25 26 27 28 29 30 31 32 32 33 33 33 33
19 20 21 21 21 21 21 21 20 20 20 21 23 25 28 31 33 35 36 37 40 43 45 45 47 49 49 50 51 52 53 53 53 52 52 51 49 48 47 46 45 45 43 42 41 40 41 40 39 38 37 37 37 36 36 35 34 33 32 31 30 29 29 28 26 26 26 26 26 26 26 26 26 27 27 28 29 29 30 31 31 32 33 33 33
19 20 21 22 23 23 23 23 23 23 22 21 21 21 23 25 28 31 32 34 36 38 40 41 44 46 47 48 50 51 52 53 54 54 55 55 52 51 50 49 48 48 46 44 43 42 41 41 40 39 38 38 38 37 37 35 34 34 33 33 32 31 30 29 28 27 27 27 26 27 27 27 27 27 28 28 28 29 30 30 31 32 32 33 33
21 22 23 23 24 24 25 25 25 25 25 25 24 24 23 23 24 26 28 29 31 34 37 38 39 42 43 45 47 49 51 53 54 54 55 56 56 53 52 51 52 51 48 46 45 43 42 42 42 41 40 40 40 39 38 36 35 34 34 34 33 32 31 30 29 28 28 28 27 27 27 27 27 27 28 28 28 29 29 30 30 31 32 33 33
26 26 27 27 27 28 28 28 28 27 27 28 28 27 27 26 25 25 26 26 27 29 32 34 36 37 39 41 43 46 48 51 53 54 54 55 56 55 53 53 55 53 50 48 47 46 45 44 43 43 42 41 41 40 39 38 36 35 35 35 34 33 32 31 31 30 29 29 29 28 28 28 27 27 28 29 29 29 29 30 31 31 32 33 33
30 31 31 31 31 31 31 32 32 31 31 30 30 30 29 28 28 28 28 27 27 27 29 30 32 33 34 36 39 41 44 47 49 51 52 54 55 56 54 54 56 55 53 52 51 50 49 48 47 45 44 43 42 41 40 39 38 36 36 36 36 34 33 32 31 31 30 30 30 30 29 29 28 28 29 29 29 30 30 30 31 32 33 33 33
34 35 35 35 35 34 34 34 34 34 34 33 33 33 32 32 31 30 29 29 29 29 29 30 30 31 32 33 35 37 39 42 44 46 48 50 53 55 54 55 56 56 54 54 54 54 53 52 50 48 46 45 44 42 41 40 38 37 37 37 37 35 34 33 32 32 32 31 30 31 31 31 30 30 30 30 30 30 31 31 31 32 33 34 34
37 38 38 38 38 38 37 37 36 36 36 35 35 35 35 34 34 33 32 32 32 32 32 31 31 32 32 31 32 33 35 37 40 42 44 46 48 51 51 53 55 55 55 55 56 56 56 55 52 50 49 47 45 44 42 41 39 38 38 38 38 37 36 34 34 34 34 33 32 32 32 32 31 31 31 31 31 31 31 32 32 33 34 34 35
39 40 41 41 41 41 40 39 38 38 37 37 37 37 36 36 36 36 36 35 35 34 33 33 33 33 34 33 33 32 33 34 36 39 41 43 45 46 47 48 51 53 54 55 56 57 57 56 54 53 51 49 47 46 44 42 40 39 39 40 39 39 38 36 35 35 35 34 34 33 33 33 33 33 33 32 32 32 32 33 33 34 35 35 36
40 40 41 42 42 42 42 42 41 40 39 39 39 39 39 38 38 37 37 37 37 37 36 35 34 34 35 35 35 34 34 34 34 36 38 40 42 44 44 46 48 50 51 52 54 56 56 55 55 55 54 51 49 48 46 45 42 40 40 41 41 40 39 37 37 36 36 36 35 35 35 34 34 34 34 34 33 33 33 33 34 35 36 36 37
40 40 40 41 41 41 42 43 43 43 42 41 41 40 40 41 40 39 38 38 38 38 38 38 37 36 36 36 37 36 35 35 36 36 37 38 40 41 43 44 46 48 49 50 52 52 53 53 54 55 54 53 51 50 49 47 45 43 42 43 42 40 39 39 38 38 37 37 37 37 36 36 36 36 36 35 34 34 34 34 35 36 36 37 38
43 42 41 40 39 39 40 41 42 43 44 44 44 43 42 42 42 42 41 40 40 39 38 38 39 38 38 38 38 38 36 36 37 37 38 38 39 40 41 42 44 47 48 49 50 49 48 50 51 52 53 52 52 51 51 50 48 46 45 44 43 42 41 41 40 40 39 38 38 38 38 38 37 38 37 36 36 35 35 35 35 36 36 37 39
47 45 43 40 38 37 37 37 39 40 41 43 43 44 44 43 43 42 42 42 41 40 39 39 39 39 39 39 39 39 38 37 37 38 38 39 40 40 41 41 43 45 47 50 50 47 46 47 47 48 49 50 52 52 52 52 50 49 48 47 46 44 43 43 43 42 41 40 39 39 39 39 39 39 39 38 37 36 36 35 35 35 36 37 39
49 49 47 44 41 39 37 36 37 38 40 41 42 43 43 43 43 42 42 42 42 41 40 40 40 40 40 40 40 40 40 40 39 39 39 39 40 41 42 42 43 44 46 49 51 48 46 46 45 45 46 48 50 52 53 53 52 52 51 50 48 47 46 47 46 44 43 41 40 39 40 40 40 40 39 39 38 37 37 36 35 35 36 37 38
47 48 48 47 45 43 41 39 38 37 38 39 41 43 43 44 44 43 42 42 42 42 41 41 41 41 41 40 40 40 41 41 41 41 40 40 40 41 42 43 44 45 46 48 51 50 47 45 44 44 45 46 49 51 53 53 53 53 53 52 50 50 50 50 48 46 45 43 41 40 40 40 40 40 40 39 39 38 38 37 36 35 36 37 38
43 43 44 44 45 44 43 42 41 40 39 39 40 41 43 44 45 46 45 45 44 43 42 42 41 42 42 42 41 40 41 42 42 42 42 41 42 42 42 43 43 44 46 48 51 52 49 46 45 45 45 45 47 49 51 53 53 54 55 54 53 52 52 51 49 48 46 44 42 41 40 40 40 40 40 40 39 39 38 37 36 36 35 36 38
43 43 43 43 43 43 44 44 44 43 43 42 42 42 42 43 44 46 47 48 48 47 46 45 44 44 44 44 44 43 43 43 43 43 43 42 43 43 43 44 44 44 44 47 50 53 52 49 47 46 45 46 47 47 49 51 53 54 55 55 55 54 53 52 52 50 48 46 44 42 42 41 41 41 41 40 40 40 39 39 37 36 36 37 38
44 45 45 46 46 46 46 46 46 46 47 47 47 46 46 46 46 46 47 48 50 50 51 50 49 48 48 47 46 45 45 46 45 45 45 44 44 44 44 45 45 45 45 45 48 52 54 53 50 49 47 47 47 46 47 49 51 54 56 57 57 56 55 55 54 52 50 49 47 44 43 43 42 42 42 41 41 40 40 40 39 38 37 37 38
43 43 45 46 47 48 48 49 49 49 49 50 50 50 50 51 51 50 50 50 51 51 52 53 53 53 53 52 51 50 49 49 48 47 48 48 47 47 47 46 47 47 46 46 47 50 53 54 53 52 51 49 47 46 47 49 50 53 56 57 58 58 57 57 56 55 53 51 50 47 45 44 44 44 44 43 42 41 41 41 41 39 38 38 38
43 43 44 45 47 48 49 50 51 52 52 53 53 53 53 54 54 54 54 54 54 54 54 54 55 56 57 57 56 55 54 54 52 51 50 50 50 50 50 49 48 49 48 49 49 50 53 54 53 53 53 52 50 48 48 49 50 52 54 56 59 59 59 59 58 58 56 54 53 51 48 46 46 45 45 45 43 42 42 43 42 40 39 38 39
44 45 46 47 48 49 50 52 53 54 55 55 56 56 56 56 56 56 56 57 57 57 57 57 57 57 57 58 59 59 59 58 57 56 54 54 54 53 53 52 52 51 51 51 51 51 53 55 55 54 54 54 53 51 50 49 50 51 53 55 57 59 60 61 60 59 58 56 55 54 52 50 48 47 47 46 45 44 44 43 42 41 40 39 39
47 47 48 49 50 50 51 52 53 54 55 56 57 58 58 59 59 58 58 58 59 59 60 60 60 59 59 59 60 60 61 61 61 60 59 58 58 57 57 56 55 54 54 54 53 53 54 55 56 56 55 55 55 54 52 51 51 51 52 55 57 59 60 61 60 59 59 58 57 57 55 53 51 49 49 48 47 46 45 44 43 42 41 40 39
46 47 48 48 49 50 50 51 52 53 54 55 56 58 59 61 62 63 63 63 63 63 63 63 63 63 63 63 62 62 62 62 62 63 63 62 62 61 60 60 59 58 57 56 55 56 56 57 58 58 57 57 56 55 55 55 55 53 53 55 57 58 58 59 59 59 59 59 58 58 58 56 54 52 51 50 49 49 47 45 44 43 41 40 39
45 46 46 47 48 49 49 50 52 53 54 55 56 58 60 62 64 66 67 68 69 69 69 68 68 67 67 66 66 65 64 64 63 63 64 64 64 64 63 62 62 62 62 60 59 58 58 58 59 59 59 60 59 57 56 57 56 55 54 55 56 56 57 58 58 58 59 59 60 60 60 59 57 55 52 51 50 50 50 48 46 44 42 41 40
44 45 46 47 48 49 50 51 52 53 55 56 58 60 63 65 67 69 70 71 72 73 73 74 73 72 71 71 70 69 68 67 66 65 65 65 66 66 66 65 65 65 65 65 64 62 61 60 60 60 60 61 61 60 59 58 56 56 56 57 56 56 58 59 58 58 58 59 61 62 62 61 59 57 55 53 52 52 52 51 49 46 43 41 40
45 46 47 48 49 50 52 54 55 56 57 58 61 64 67 69 71 73 75 75 75 76 76 77 77 76 76 75 75 75 74 72 71 70 69 68 67 67 68 68 67 67 67 68 68 67 66 65 63 62 62 62 61 60 61 60 58 57 57 57 57 57 58 59 59 58 58 58 60 62 61 61 60 59 58 56 55 54 54 53 51 48 45 43 42
48 48 49 50 51 53 56 58 59 61 62 64 67 69 69 70 71 73 75 76 77 77 78 78 78 78 78 78 79 79 78 78 76 75 74 72 71 70 69 70 70 70 69 69 69 69 70 69 68 66 65 64 62 61 61 60 60 59 57 57 58 58 60 60 59 58 58 58 60 61 60 60 60 61 61 59 57 56 54 54 53 51 48 46 46
49 50 51 53 55 57 60 62 64 66 67 68 68 68 69 69 70 72 74 75 75 76 76 77 77 78 78 79 79 80 80 80 80 80 79 77 76 74 73 72 72 72 72 72 71 70 71 71 72 71 69 67 66 64 61 60 60 60 60 59 58 58 59 60 59 58 58 58 60 60 60 59 60 62 63 62 60 58 56 54 54 53 51 50 49
50 52 54 56 59 61 64 67 68 68 67 66 67 68 70 72 73 75 76 77 77 76 76 75 76 76 76 77 78 79 79 79 80 80 81 80 80 78 77 75 74 74 74 74 73 72 72 72 73 74 72 70 69 67 63 61 61 60 61 60 59 58 58 58 58 59 59 58 58 60 61 60 60 63 64 64 62 59 57 54 53 53 53 52 52
52 55 57 60 62 65 67 67 67 65 65 66 69 71 74 76 78 79 80 80 79 78 77 76 76 76 76 76 77 77 77 77 77 78 79 80 80 81 80 79 78 76 76 75 75 75 74 73 73 73 73 72 72 70 67 64 64 63 61 60 59 58 58 57 57 59 61 61 60 61 63 62 63 64 64 64 64 62 58 55 53 53 54 55 54
55 58 60 63 65 66 65 64 64 65 65 69 73 76 77 78 77 76 76 75 74 74 73 73 73 74 74 75 76 77 77 77 76 76 77 78 80 81 82 82 81 79 78 77 76 76 76 75 74 74 73 73 72 72 70 67 66 65 63 61 60 60 60 61 60 60 61 62 63 64 64 64 65 65 64 65 66 65 62 59 55 54 55 56 56
58 61 63 65 65 64 62 62 64 66 68 71 74 73 71 68 66 64 63 61 60 59 59 59 60 61 63 65 68 70 73 74 75 76 78 79 80 81 81 82 83 82 81 79 77 76 77 77 76 75 74 73 72 72 71 69 67 66 66 65 64 62 62 63 64 62 61 62 62 62 64 66 66 66 65 66 68 68 66 63 58 55 55 56 58
61 64 66 64 62 60 61 63 65 67 69 71 69 64 59 57 56 55 53 52 51 50 50 49 50 51 52 54 56 59 62 64 67 70 73 77 80 82 82 83 83 84 84 82 79 77 76 76 76 76 76 74 73 72 71 69 67 65 67 68 67 64 63 64 65 63 62 61 60 61 64 65 65 66 67 68 69 70 70 68 63 58 55 57 59
64 65 64 61 59 60 62 63 64 68 70 66 60 56 54 54 53 52 50 49 48 47 46 46 47 48 49 50 52 54 56 57 58 60 63 66 72 76 80 83 84 85 84 83 82 79 76 76 76 76 76 75 74 72 70 68 66 64 65 67 67 66 66 67 65 63 63 63 61 60 62 63 64 67 68 68 70 71 71 70 68 62 58 58 61
Wind_Direction
263 262 260 259 259 259 259 259 261 263 263 260 259 260 261 261 262 264 265 266 267 268 269 270 271 273 275 276 277 279 279 280 282 283 284 286 287 289 290 292 293 294 294 293 291 288 286 285 286 285 282 279 274 272 271 270 268 265 262 259 256 253 251 252 253 253 253 252 252 252 253 253 253 252 250 250 248 246 245 244 244 245 245 245 245
262 261 260 259 259 259 260 259 260 262 264 263 260 259 259 260 261 263 263 263 264 265 266 267 269 272 273 275 276 278 278 279 280 281 282 283 284 286 287 289 291 292 293 293 293 292 291 290 290 289 287 282 277 276 275 273 271 269 266 263 260 256 254 254 255 255 254 252 252 252 253 253 253 253 251 250 249 249 247 246 245 245 245 245 245
260 260 260 259 258 258 258 258 259 259 261 262 261 259 258 259 260 262 262 261 261 263 264 267 269 271 272 273 274 275 276 276 278 279 281 281 282 284 285 286 288 289 291 291 292 293 293 293 292 292 290 285 281 280 280 280 279 276 273 268 264 259 256 255 255 255 254 253 252 252 252 250 251 251 251 250 250 249 248 247 246 245 245 245 245
260 260 259 258 257 256 256 256 256 256 257 258 260 259 257 258 260 262 263 263 262 264 265 268 270 271 272 272 272 272 273 274 275 276 278 279 280 282 283 284 285 287 288 289 290 291 292 292 292 292 290 287 283 282 283 282 281 279 277 273 269 263 260 257 255 253 253 254 254 253 252 250 248 248 249 249 249 249 248 247 246 245 245 244 245
262 262 261 259 257 256 255 255 254 254 255 256 257 257 256 257 259 262 264 264 264 265 266 267 268 269 270 270 271 271 271 272 272 273 275 277 278 279 280 282 283 285 286 287 288 289 290 291 291 291 290 289 286 284 284 283 280 279 278 276 274 269 265 262 258 254 252 252 254 254 254 251 249 246 247 247 247 248 247 246 245 245 244 244 244
263 264 263 262 259 258 256 254 253 253 254 256 256 255 254 254 255 258 261 263 263 263 264 265 266 267 269 270 270 271 271 271 272 272 273 274 275 277 278 280 281 283 284 285 286 287 288 289 290 290 289 289 288 286 285 285 283 282 280 278 277 274 270 267 264 260 256 253 252 253 253 252 250 247 246 245 246 246 246 246 246 245 244 244 244
265 264 264 263 262 260 257 255 253 253 255 256 256 256 255 253 253 253 257 260 261 261 263 264 265 266 267 269 270 271 271 272 273 272 273 273 274 276 277 279 280 281 282 283 284 285 286 287 288 288 288 288 288 287 286 286 286 285 284 281 279 278 272 267 266 264 261 258 255 253 251 251 250 248 247 246 245 246 246 245 245 244 243 242 242
265 265 265 265 263 261 259 257 255 254 255 256 257 257 257 255 254 253 253 256 258 260 260 261 263 264 265 267 269 270 271 273 273 273 273 274 275 277 278 279 279 280 281 282 283 284 285 286 286 287 287 287 286 286 285 286 286 287 286 284 282 279 274 269 266 265 263 261 259 256 254 252 251 249 249 248 247 246 246 246 246 245 244 243 242
264 264 264 265 265 263 261 259 258 256 255 256 258 259 259 259 258 257 255 255 257 259 260 260 260 261 263 265 266 268 270 271 272 272 274 276 278 279 279 279 279 279 280 281 282 283 284 284 285 285 285 285 285 285 284 283 284 285 284 283 282 279 275 271 267 264 263 261 260 258 256 255 253 251 250 249 248 248 248 248 248 247 247 246 244
266 265 265 265 265 265 263 262 260 259 258 258 258 259 260 261 261 260 259 258 259 261 262 261 260 260 261 263 265 266 267 268 270 272 275 277 278 279 279 280 280 279 280 281 282 282 283 283 283 283 283 284 284 284 283 282 282 283 281 281 280 277 273 268 264 262 260 259 258 257 256 255 254 254 253 252 251 250 250 250 250 249 249 248 247
268 268 267 266 265 265 265 264 262 262 261 260 259 259 259 260 260 260 260 259 259 260 261 262 262 261 261 263 264 266 267 268 270 271 273 275 276 277 278 277 278 279 280 281 282 282 282 282 282 282 282 282 283 283 283 282 280 280 279 278 277 275 271 265 261 260 257 256 256 255 255 254 254 254 254 254 253 252 251 251 251 251 251 250 249
268 268 267 267 266 265 265 265 265 263 263 263 262 261 259 258 258 258 258 259 258 258 259 261 262 262 263 264 264 265 267 269 269 270 272 274 275 275 275 274 275 277 279 280 281 281 281 280 280 281 281 282 282 283 283 282 280 279 278 277 274 272 270 265 260 259 257 254 253 253 253 252 252 252 253 253 253 253 253 252 252 251 251 250 250
270 269 268 268 267 266 265 266 266 265 265 265 264 264 262 260 259 259 259 259 259 258 258 259 261 263 265 265 264 264 266 267 268 270 271 272 272 273 274 274 276 277 277 277 278 278 279 279 280 280 281 281 282 283 284 283 281 280 279 277 275 272 270 265 259 260 259 255 253 252 252 251 250 250 251 251 251 251 251 252 252 251 250 249 249
273 273 272 270 269 267 266 266 265 265 265 265 264 265 264 263 262 262 261 261 260 259 259 259 261 263 264 264 264 265 265 265 267 269 270 270 271 273 274 275 276 276 275 275 275 276 277 277 278 279 280 280 281 282 282 283 282 281 280 279 277 273 270 264 259 260 262 259 255 253 253 252 251 250 250 250 250 249 249 249 250 250 250 250 249
276 276 275 274 273 271 269 268 268 267 266 265 265 265 265 265 264 263 263 263 262 262 261 261 261 261 262 263 264 265 265 265 268 269 269 270 271 272 272 273 273 273 273 273 274 274 275 276 277 278 279 280 280 280 280 280 280 280 280 280 278 276 273 267 261 260 263 262 258 255 254 253 251 250 250 249 249 249 248 248 248 249 250 250 250
282 282 280 279 277 275 274 273 272 271 270 268 266 265 265 264 264 263 263 263 263 263 262 261 261 261 262 263 264 264 265 266 267 267 266 267 268 268 269 270 270 270 271 273 273 273 273 274 276 277 279 280 280 279 279 278 277 277 278 279 278 277 274 272 267 263 263 263 260 257 254 253 252 251 251 250 249 249 248 248 248 248 248 248 247
289 290 289 288 286 284 282 280 277 275 274 273 271 269 267 266 264 263 262 262 262 262 261 261 261 261 261 261 262 264 266 267 265 264 264 265 266 266 267 268 269 270 271 272 272 272 272 273 274 275 276 278 278 278 278 277 276 276 276 277 278 277 274 272 269 265 263 262 261 259 256 254 254 253 252 251 250 250 250 248 248 247 247 246 245
297 299 300 300 299 298 297 294 290 286 282 279 277 275 273 272 269 267 264 262 261 260 260 260 261 260 260 261 262 263 265 266 265 265 265 265 265 266 267 267 268 269 270 271 271 271 271 272 272 273 274 275 276 276 276 277 277 276 276 276 276 275 273 270 268 266 264 262 261 260 257 255 255 254 253 252 251 251 251 250 249 249 247 247 246
308 308 308 308 307 307 307 307 305 302 297 292 287 282 279 277 276 274 271 268 264 263 261 260 260 260 259 260 262 262 263 264 265 266 266 266 265 266 266 266 266 267 267 268 269 270 270 271 272 272 272 273 273 273 274 275 276 276 276 276 275 274 272 269 268 267 266 264 262 260 258 256 255 255 254 253 252 253 253 252 251 251 250 248 247
309 310 309 308 308 308 308 307 307 306 305 303 300 294 289 284 282 280 279 276 272 270 267 264 262 261 260 260 260 260 261 262 263 264 266 267 267 266 266 266 266 265 265 266 266 267 268 270 271 271 270 270 270 271 271 272 273 274 274 274 274 274 273 269 267 266 266 266 263 260 258 256 255 255 255 254 254 254 254 254 253 252 251 250 249
306 306 306 306 306 306 306 305 304 303 302 302 301 299 296 293 289 286 285 283 280 277 274 271 267 265 263 261 260 260 260 261 261 262 265 267 268 267 267 266 266 266 265 264 263 264 265 266 267 267 267 267 268 269 270 271 271 271 271 272 272 273 273 270 267 265 265 265 263 261 258 255 254 255 256 256 255 255 255 255 255 254 253 252 250
306 306 305 304 304 304 304 303 302 301 299 298 297 295 294 293 291 290 289 288 286 283 281 278 275 271 268 265 263 262 261 261 261 262 263 265 267 268 267 266 266 266 264 262 262 261 261 261 261 262 262 263 265 267 269 270 270 269 269 270 270 271 271 270 267 265 264 263 262 260 258 255 252 251 253 254 255 255 255 255 255 255 255 253 252
303 305 306 305 305 304 303 303 302 300 299 297 295 293 291 289 288 287 287 287 285 284 283 282 281 278 274 270 267 265 263 263 263 263 263 263 264 266 266 265 266 265 263 262 261 260 258 257 257 258 259 260 262 263 265 267 267 268 268 268 268 268 268 268 267 265 263 262 262 260 258 255 251 248 249 250 251 253 254 254 255 256 255 254 253
301 302 303 304 304 304 304 303 302 301 299 297 295 293 291 289 286 284 283 282 282 281 280 280 281 281 280 277 274 270 267 266 265 265 264 264 264 264 264 264 264 265 264 263 262 260 259 258 257 257 258 258 259 260 261 263 265 266 266 266 266 266 266 266 266 264 262 261 260 260 258 255 252 248 246 246 247 249 251 252 253 254 254 254 252
302 303 303 303 303 302 302 302 301 301 299 297 295 293 290 288 286 284 282 280 279 278 278 278 278 278 278 277 276 275 273 271 269 267 266 265 264 263 263 263 263 264 264 263 262 261 260 259 258 258 258 258 258 259 260 261 262 263 264 265 265 265 265 265 264 262 261 260 258 258 257 256 253 249 247 245 244 245 247 248 249 251 251 251 251
302 302 302 302 301 301 300 299 299 298 298 297 295 293 291 288 286 284 282 280 278 277 276 275 275 276 276 275 274 274 274 273 271 271 269 268 267 266 265 264 262 262 262 262 261 261 260 259 259 258 257 257 258 259 259 259 259 260 261 262 263 263 263 263 262 261 260 259 257 256 256 255 253 250 248 246 244 244 244 245 246 248 249 249 249
302 301 300 299 298 297 297 297 296 295 294 294 292 291 290 288 285 283 280 278 278 276 275 273 272 272 273 274 274 274 273 272 271 271 271 270 270 269 268 267 264 263 261 261 260 260 260 260 259 258 258 257 257 258 258 258 257 256 257 259 261 262 262 262 261 261 259 257 256 255 254 253 252 250 248 246 244 243 243 244 245 246 247 248 248
303 301 299 297 295 293 293 293 292 291 291 290 289 287 286 285 284 283 280 278 277 274 273 272 271 269 269 270 271 272 273 272 272 271 270 270 271 270 269 269 268 267 265 262 261 260 260 260 260 260 259 259 258 258 257 257 257 255 255 256 258 260 261 260 260 259 257 256 255 255 253 252 252 251 249 247 245 244 243 243 244 245 246 247 248
303 301 298 295 292 289 287 286 286 285 285 285 285 284 282 281 280 280 278 278 277 274 271 270 269 268 267 267 268 269 270 270 271 271 271 270 270 270 270 269 269 269 269 267 265 263 261 260 260 260 260 259 259 258 257 257 256 254 253 253 254 256 257 258 257 257 256 255 254 254 253 251 251 251 250 248 246 245 244 244 244 245 247 248 249
300 299 297 294 290 285 282 279 277 277 276 277 277 278 277 276 276 276 275 275 274 273 272 270 269 267 267 266 266 266 266 266 267 269 270 271 270 270 270 270 268 269 271 270 270 268 264 261 260 260 260 260 259 258 257 257 255 253 253 252 251 252 254 255 255 255 255 254 253 253 252 251 250 251 250 249 247 246 244 244 245 246 247 248 249
295 295 294 293 291 288 284 279 274 271 270 270 270 271 271 271 271 271 271 271 270 270 270 270 269 268 267 266 265 265 265 264 264 264 266 268 270 270 270 269 269 269 269 269 271 271 268 265 263 261 259 258 258 258 257 256 255 253 253 252 251 251 252 253 253 253 254 254 253 252 252 251 250 250 250 249 248 246 245 244 245 245 247 248 249
288 288 288 288 288 288 287 285 282 277 273 271 270 269 269 269 270 270 270 269 268 267 267 268 269 269 268 267 266 265 264 264 264 263 262 263 265 267 268 269 269 269 268 268 270 272 270 267 265 262 259 257 256 256 256 256 255 254 254 253 252 251 251 252 252 252 253 253 252 251 251 251 250 249 250 250 249 247 246 245 244 245 246 248 249
287 285 285 284 284 284 285 285 285 284 282 279 276 273 271 270 271 272 272 271 270 269 267 266 267 268 269 269 268 267 266 265 264 264 263 262 261 262 263 266 267 268 269 268 269 271 270 268 266 263 260 257 255 255 255 256 256 255 256 255 254 252 251 251 251 252 251 252 252 251 250 249 249 248 248 249 248 247 246 245 244 244 245 246 248
289 288 288 287 286 285 285 285 285 285 285 284 282 280 277 275 273 272 272 273 273 272 272 270 269 268 268 268 268 269 269 268 266 265 264 263 262 261 261 262 263 264 267 268 269 269 269 268 265 263 260 258 256 254 254 254 255 255 255 255 254 253 252 251 251 250 250 250 251 250 249 249 248 247 247 247 247 246 245 244 243 243 243 244 245
289 289 289 289 289 289 289 288 288 287 287 286 286 285 284 282 279 276 274 273 272 272 272 272 272 272 271 269 268 269 269 268 267 267 267 265 263 262 261 261 261 261 262 264 266 267 267 267 265 263 261 258 256 254 253 252 253 253 254 254 253 252 251 251 250 250 249 249 249 248 248 248 247 246 245 244 244 244 244 243 242 241 241 242 243
289 289 289 289 289 290 290 291 291 291 290 289 288 288 288 287 286 283 281 278 276 274 272 271 271 272 272 271 270 270 270 268 267 267 267 267 266 264 262 261 260 260 260 260 262 263 264 264 264 263 262 258 256 253 251 250 250 250 251 252 252 252 251 250 250 249 248 247 247 246 246 246 246 246 245 244 243 243 243 242 240 240 239 240 241
291 290 290 290 289 289 290 290 290 291 291 290 290 289 289 289 288 287 286 284 281 279 277 275 273 272 271 270 270 271 271 270 268 266 266 266 266 265 264 262 261 260 259 259 259 260 261 262 262 263 263 261 257 253 250 249 248 248 249 251 251 252 251 250 249 248 247 246 246 246 245 245 245 245 245 244 242 241 241 241 240 239 238 238 239
293 292 291 291 291 290 290 290 289 289 289 289 288 288 288 288 287 287 286 285 284 282 280 279 277 275 273 271 270 270 270 270 269 268 267 267 266 265 264 263 262 261 259 258 258 258 259 261 261 261 262 262 261 257 252 250 248 247 247 249 250 251 251 250 250 249 248 247 247 247 246 245 245 245 245 244 243 242 241 241 240 239 237 236 237
295 294 293 292 292 291 291 290 290 289 288 288 288 287 287 286 286 285 284 283 282 281 280 279 278 277 276 274 272 271 270 270 269 268 268 267 267 265 264 264 263 261 260 258 258 258 258 259 260 260 260 261 262 261 257 253 249 246 245 245 247 248 250 251 250 250 249 248 248 247 247 245 244 243 244 243 243 242 241 241 241 239 237 236 236
293 293 292 292 291 291 291 290 290 289 289 289 288 288 287 286 286 285 283 282 281 280 278 277 276 276 275 275 274 273 272 271 269 268 268 268 267 266 265 264 264 263 261 259 258 257 257 257 258 259 259 259 260 260 260 257 254 250 247 246 245 246 248 250 251 251 250 249 248 247 246 245 244 243 243 243 243 242 241 241 240 239 237 235 235
291 291 291 291 291 291 290 290 290 289 289 289 289 288 288 287 286 285 284 283 282 281 279 278 277 276 275 274 273 273 272 271 270 269 268 267 267 266 265 264 264 264 263 262 260 258 257 256 256 256 257 257 258 259 259 259 258 257 254 251 249 248 249 250 250 250 250 250 249 248 246 245 244 243 242 243 243 243 242 241 240 239 238 236 235
292 292 292 292 292 292 291 290 290 289 289 288 288 288 288 288 287 286 285 283 282 281 280 279 278 277 277 276 275 274 272 271 270 269 268 267 266 265 264 263 263 263 262 262 261 260 259 257 256 255 255 255 256 257 258 259 259 259 258 255 253 251 250 249 248 247 248 248 249 249 247 246 244 243 242 242 242 243 243 242 240 239 239 238 236
296 295 295 294 294 294 293 292 291 291 290 290 290 290 289 289 288 287 285 284 282 281 280 280 278 278 277 276 276 275 274 272 271 270 268 267 266 265 264 262 262 262 261 260 260 260 260 259 257 256 255 255 255 255 255 256 257 258 258 258 256 253 252 250 247 245 245 246 248 249 249 248 246 245 244 242 241 243 243 242 241 240 238 237 236
299 298 298 297 296 296 296 295 295 294 294 294 293 292 290 289 288 287 285 284 283 281 280 279 278 277 276 275 275 274 274 273 272 271 269 268 266 265 264 263 262 261 260 259 258 258 258 259 258 256 256 256 256 255 254 254 254 255 257 257 257 256 254 252 249 247 246 246 248 249 249 248 247 246 245 244 242 242 243 243 243 241 239 237 237
300 300 299 299 299 299 299 298 298 298 298 296 295 293 292 290 289 287 286 285 283 282 281 280 279 278 276 275 274 273 272 272 272 272 271 269 267 265 264 262 261 260 260 259 258 257 257 257 257 256 255 255 256 255 255 254 253 253 253 254 255 256 256 254 252 250 249 248 249 250 248 247 246 245 244 244 243 242 242 243 244 244 242 239 238
300 301 301 301 301 302 302 301 301 300 299 297 295 294 292 291 289 287 286 285 284 283 282 281 280 278 277 276 274 273 271 270 270 270 270 269 268 266 264 262 260 259 259 259 258 257 256 256 256 254 253 254 255 254 254 254 253 252 252 252 253 254 255 256 255 253 251 249 249 250 249 247 246 245 243 242 242 241 241 243 245 246 245 243 240
302 303 303 304 304 304 304 303 301 299 298 296 295 294 292 291 290 288 286 285 284 283 282 281 280 279 278 276 275 274 272 271 269 269 268 268 267 266 265 262 260 258 257 257 258 258 257 256 255 254 252 252 254 254 254 254 253 252 251 251 252 253 253 253 252 251 250 247 245 245 245 244 244 244 243 241 241 240 239 241 243 244 245 244 242
305 306 307 307 307 305 303 301 300 299 298 297 297 296 295 293 291 289 287 286 285 284 282 281 280 279 278 277 275 274 273 271 270 269 268 268 267 266 265 263 262 259 257 255 255 256 257 256 256 255 252 251 251 253 253 254 254 252 251 251 251 251 250 249 248 249 250 248 245 244 243 242 242 242 241 240 240 239 237 237 239 241 243 243 243
307 308 309 308 306 304 302 301 301 300 299 300 300 298 296 294 293 291 290 289 288 287 286 284 283 281 280 278 276 275 273 271 270 268 268 267 266 265 264 263 262 261 258 256 254 253 254 255 256 255 254 251 251 251 251 253 254 253 252 251 250 249 250 249 247 247 248 249 249 247 245 244 244 243 242 241 239 238 237 235 235 237 240 242 242
309 310 309 307 304 303 302 302 302 302 303 303 302 299 297 296 295 294 294 293 293 292 290 289 288 286 284 282 280 278 276 274 272 270 268 266 265 264 263 263 262 261 259 257 255 253 252 252 253 254 254 253 251 251 250 251 252 253 253 251 249 250 251 250 248 248 248 249 249 248 247 245 245 245 245 243 240 238 237 236 234 233 237 240 241
311 310 308 305 304 303 304 304 305 306 307 305 301 298 298 297 296 295 294 294 294 294 294 293 292 291 290 288 286 283 281 279 276 273 270 268 266 264 263 262 261 260 260 259 258 255 252 250 249 250 252 252 251 251 250 250 250 251 252 252 250 249 249 249 248 249 249 248 247 248 248 246 244 245 245 245 244 241 238 237 236 233 234 238 240
Height
3162 3163 3163 3164 3164 3165 3165 3165 3165 3165 3165 3166 3166 3166 3167 3167 3166 3166 3167 3167 3167 3167 3167 3167 3167 3168 3168 3168 3167 3168 3168 3167 3167 3167 3167 3167 3167 3167 3167 3166 3166 3166 3166 3165 3165 3165 3164 3164 3163 3163 3162 3162 3162 3161 3161 3162 3162 3162 3162 3162 3162 3163 3163 3162 3162 3163 3163 3164 3164 3163 3164 3165 3166 3166 3167 3167 3168 3168 3169 3169 3170 3170 3170 3171 3171
3160 3160 3161 3161 3162 3162 3162 3162 3163 3163 3163 3163 3164 3164 3164 3164 3164 3164 3164 3165 3165 3164 3164 3164 3165 3165 3165 3165 3165 3165 3165 3165 3164 3164 3165 3165 3164 3164 3164 3164 3164 3164 3163 3163 3163 3162 3162 3162 3161 3160 3160 3160 3159 3159 3159 3159 3159 3159 3159 3159 3159 3160 3160 3159 3160 3160 3161 3161 3161 3161 3162 3163 3163 3163 3164 3164 3165 3165 3166 3167 3167 3168 3168 3168 3169
3157 3157 3158 3159 3159 3159 3160 3160 3160 3160 3160 3160 3161 3161 3161 3161 3161 3161 3161 3162 3162 3162 3161 3162 3162 3162 3162 3162 3162 3162 3162 3162 3162 3162 3162 3162 3162 3162 3161 3161 3161 3161 3161 3160 3160 3160 3160 3159 3159 3158 3158 3157 3157 3157 3157 3157 3157 3156 3156 3156 3157 3157 3157 3157 3157 3158 3158 3158 3158 3158 3159 3160 3160 3160 3160 3161 3162 3162 3163 3163 3164 3165 3165 3166 3166
3154 3154 3155 3156 3156 3156 3157 3157 3157 3157 3157 3157 3158 3158 3159 3159 3159 3158 3158 3159 3159 3159 3159 3159 3159 3159 3160 3160 3159 3159 3159 3160 3159 3159 3159 3159 3159 3159 3159 3158 3158 3158 3158 3157 3157 3157 3157 3157 3156 3156 3155 3155 3155 3155 3155 3155 3154 3154 3154 3154 3154 3154 3154 3154 3155 3155 3155 3155 3155 3155 3156 3156 3157 3157 3157 3158 3158 3158 3159 3160 3161 3161 3162 3163 3163
3151 3151 3152 3152 3153 3153 3154 3154 3154 3154 3154 3154 3154 3155 3155 3156 3156 3155 3155 3156 3156 3156 3156 3157 3157 3157 3157 3157 3157 3157 3156 3157 3157 3156 3156 3156 3156 3156 3156 3156 3156 3155 3155 3155 3155 3155 3154 3154 3154 3154 3153 3152 3152 3152 3153 3152 3152 3152 3152 3151 3151 3151 3151 3151 3151 3151 3151 3151 3152 3152 3153 3153 3153 3154 3154 3154 3155 3155 3155 3156 3157 3158 3158 3159 3160
3149 3149 3149 3149 3150 3150 3150 3151 3151 3151 3151 3150 3151 3151 3152 3152 3152 3152 3152 3152 3153 3153 3153 3153 3154 3154 3154 3154 3154 3154 3153 3154 3154 3153 3153 3153 3153 3153 3153 3153 3153 3153 3152 3152 3152 3152 3152 3151 3151 3151 3150 3150 3149 3149 3149 3149 3150 3150 3149 3149 3148 3148 3149 3148 3148 3148 3148 3148 3148 3149 3149 3150 3150 3150 3151 3151 3151 3152 3152 3153 3154 3154 3155 3156 3157
3146 3146 3146 3146 3147 3147 3147 3147 3148 3148 3147 3147 3147 3148 3148 3148 3148 3149 3148 3148 3149 3149 3150 3150 3150 3150 3150 3150 3150 3150 3150 3151 3151 3150 3150 3150 3150 3150 3150 3150 3150 3150 3149 3149 3149 3149 3149 3148 3148 3148 3147 3147 3147 3146 3146 3146 3146 3146 3146 3146 3145 3145 3145 3145 3145 3145 3145 3146 3146 3146 3146 3146 3147 3147 3148 3148 3148 3149 3149 3150 3150 3151 3151 3152 3153
3142 3142 3142 3143 3143 3144 3144 3144 3144 3144 3144 3144 3144 3144 3145 3145 3145 3145 3145 3145 3145 3145 3146 3146 3146 3147 3147 3147 3147 3147 3147 3147 3147 3147 3147 3147 3148 3147 3147 3147 3147 3147 3146 3146 3146 3145 3145 3145 3145 3145 3144 3144 3144 3143 3143 3143 3143 3143 3142 3142 3142 3142 3142 3142 3142 3142 3142 3142 3143 3143 3143 3143 3144 3144 3144 3145 3145 3146 3146 3147 3147 3147 3148 3149 3150
3139 3139 3139 3139 3140 3140 3141 3141 3141 3141 3141 3141 3141 3141 3141 3141 3141 3141 3141 3141 3141 3141 3142 3142 3142 3142 3142 3142 3142 3143 3143 3143 3143 3143 3144 3145 3145 3145 3145 3144 3144 3144 3143 3143 3143 3142 3142 3142 3142 3142 3142 3141 3141 3140 3140 3139 3139 3139 3139 3139 3139 3139 3138 3138 3138 3139 3139 3139 3139 3140 3140 3140 3140 3141 3141 3141 3142 3143 3143 3144 3144 3144 3145 3146 3147
3134 3134 3135 3136 3136 3136 3136 3137 3137 3137 3137 3137 3137 3137 3137 3137 3138 3138 3138 3138 3138 3138 3138 3138 3138 3138 3138 3138 3138 3138 3139 3139 3139 3140 3140 3141 3142 3142 3142 3142 3141 3141 3141 3140 3140 3140 3139 3139 3139 3139 3139 3138 3138 3137 3137 3137 3136 3136 3136 3135 3135 3135 3135 3135 3135 3135 3135 3135 3136 3136 3136 3137 3137 3137 3138 3138 3139 3140 3140 3141 3141 3141 3142 3143 3143
3128 3129 3130 3131 3131 3131 3131 3132 3132 3133 3133 3133 3133 3133 3133 3133 3134 3134 3134 3134 3134 3134 3134 3134 3133 3133 3134 3134 3133 3134 3134 3135 3136 3136 3136 3137 3138 3138 3138 3138 3138 3138 3138 3138 3137 3137 3137 3136 3136 3136 3136 3136 3135 3135 3134 3134 3133 3133 3133 3133 3132 3132 3132 3132 3131 3131 3132 3132 3132 3132 3133 3133 3134 3134 3135 3135 3136 3136 3137 3137 3138 3138 3139 3140 3140
3124 3124 3125 3125 3126 3126 3126 3127 3127 3128 3128 3129 3129 3129 3129 3129 3129 3129 3129 3129 3129 3130 3130 3129 3129 3129 3129 3129 3129 3129 3130 3131 3131 3132 3133 3134 3134 3134 3134 3134 3135 3135 3135 3135 3134 3134 3134 3133 3133 3133 3133 3133 3132 3132 3132 3131 3131 3131 3130 3130 3129 3129 3128 3128 3128 3127 3127 3128 3128 3129 3129 3129 3130 3130 3131 3131 3132 3133 3134 3134 3135 3135 3135 3136 3137
3120 3120 3120 3121 3121 3122 3122 3122 3122 3123 3123 3124 3125 3125 3125 3125 3125 3125 3124 3124 3125 3125 3125 3125 3124 3124 3124 3124 3124 3125 3126 3126 3127 3129 3129 3129 3129 3129 3130 3131 3131 3132 3132 3131 3131 3131 3131 3130 3130 3130 3130 3130 3130 3129 3129 3129 3129 3128 3128 3127 3126 3126 3125 3125 3124 3123 3124 3125 3125 3125 3125 3126 3126 3127 3127 3128 3128 3129 3130 3131 3131 3131 3132 3132 3133
3117 3117 3117 3117 3117 3117 3117 3117 3118 3118 3118 3119 3120 3120 3120 3121 3121 3121 3121 3120 3121 3121 3121 3120 3120 3120 3120 3119 3119 3120 3120 3120 3123 3125 3124 3124 3125 3126 3127 3127 3127 3128 3128 3128 3128 3127 3127 3126 3126 3126 3126 3126 3126 3126 3126 3126 3126 3126 3125 3125 3124 3123 3123 3123 3122 3120 3120 3121 3121 3122 3122 3122 3123 3123 3124 3124 3125 3126 3126 3127 3127 3128 3128 3129 3129
3114 3114 3114 3114 3114 3114 3114 3113 3113 3113 3113 3114 3114 3115 3115 3115 3115 3116 3116 3116 3116 3116 3116 3116 3116 3116 3115 3114 3114 3114 3114 3116 3120 3120 3119 3120 3121 3122 3122 3123 3123 3124 3123 3124 3124 3124 3123 3123 3123 3123 3123 3123 3123 3123 3123 3123 3123 3123 3122 3122 3122 3121 3121 3120 3120 3118 3117 3117 3118 3118 3119 3119 3119 3120 3120 3121 3122 3122 3122 3123 3124 3124 3125 3125 3126
3111 3111 3111 3111 3110 3110 3110 3110 3110 3109 3109 3109 3109 3109 3109 3109 3110 3110 3110 3109 3110 3111 3111 3111 3111 3111 3111 3109 3109 3108 3108 3112 3115 3115 3114 3115 3116 3116 3117 3118 3119 3118 3119 3120 3120 3120 3119 3119 3119 3119 3119 3119 3119 3119 3119 3119 3119 3119 3119 3119 3119 3118 3118 3117 3117 3116 3115 3114 3114 3115 3115 3116 3116 3117 3117 3118 3118 3119 3119 3120 3120 3121 3121 3122 3122
3109 3109 3108 3108 3107 3107 3107 3107 3106 3106 3105 3104 3104 3105 3104 3104 3104 3104 3104 3103 3104 3104 3104 3104 3105 3106 3105 3103 3103 3103 3103 3107 3108 3108 3109 3109 3110 3111 3112 3113 3113 3113 3114 3115 3116 3115 3115 3115 3115 3115 3115 3115 3116 3116 3116 3116 3116 3115 3115 3115 3115 3115 3114 3114 3114 3114 3113 3112 3111 3111 3112 3112 3113 3113 3114 3114 3115 3115 3116 3116 3117 3117 3118 3118 3119
3108 3107 3106 3106 3105 3104 3104 3103 3103 3102 3102 3101 3101 3100 3100 3100 3099 3099 3099 3099 3098 3097 3098 3099 3099 3100 3099 3098 3099 3098 3098 3099 3100 3101 3102 3103 3105 3106 3107 3108 3108 3108 3109 3110 3111 3111 3111 3111 3111 3111 3111 3111 3111 3111 3112 3112 3112 3112 3112 3112 3111 3111 3111 3110 3110 3110 3110 3109 3109 3108 3108 3109 3109 3110 3110 3111 3112 3112 3112 3113 3114 3114 3114 3115 3115
3107 3106 3105 3104 3103 3102 3102 3101 3100 3099 3099 3098 3098 3097 3097 3096 3095 3094 3094 3094 3093 3092 3092 3093 3093 3092 3094 3094 3093 3093 3092 3093 3093 3094 3094 3096 3098 3100 3101 3102 3102 3102 3104 3105 3106 3106 3106 3106 3106 3106 3106 3106 3107 3107 3107 3108 3108 3108 3108 3108 3108 3107 3107 3107 3106 3106 3106 3105 3105 3105 3105 3106 3106 3106 3107 3107 3108 3109 3109 3110 3110 3111 3111 3112 3112
3105 3105 3104 3103 3102 3101 3100 3099 3098 3098 3097 3096 3095 3094 3093 3093 3092 3091 3090 3090 3089 3088 3088 3088 3088 3087 3088 3088 3088 3088 3087 3087 3087 3087 3087 3087 3090 3093 3094 3095 3095 3096 3098 3100 3100 3100 3101 3101 3101 3101 3101 3101 3102 3102 3102 3103 3103 3104 3104 3104 3104 3103 3103 3103 3103 3102 3102 3101 3101 3101 3102 3102 3102 3103 3103 3104 3105 3105 3106 3107 3107 3108 3108 3108 3109
3103 3103 3102 3101 3100 3099 3098 3098 3097 3096 3095 3094 3093 3092 3091 3090 3089 3088 3087 3087 3086 3085 3084 3084 3084 3084 3084 3083 3083 3082 3082 3081 3081 3081 3081 3080 3081 3085 3088 3088 3088 3089 3093 3094 3094 3095 3095 3095 3095 3096 3096 3096 3097 3097 3098 3098 3099 3099 3099 3099 3099 3099 3099 3099 3099 3099 3098 3098 3097 3097 3098 3098 3099 3099 3099 3100 3101 3102 3102 3103 3104 3104 3105 3105 3106
3100 3099 3099 3098 3097 3096 3095 3095 3094 3094 3093 3092 3091 3089 3089 3087 3086 3085 3084 3083 3083 3081 3080 3080 3080 3080 3080 3079 3078 3078 3077 3076 3075 3076 3077 3075 3074 3077 3080 3081 3080 3083 3086 3087 3087 3088 3088 3088 3089 3089 3091 3091 3092 3092 3093 3094 3094 3094 3094 3094 3094 3094 3095 3095 3095 3095 3095 3094 3094 3094 3094 3094 3095 3095 3095 3096 3097 3098 3099 3100 3100 3101 3102 3102 3103
3096 3096 3095 3094 3093 3092 3091 3091 3091 3090 3090 3089 3088 3087 3086 3084 3084 3082 3081 3080 3079 3078 3077 3076 3076 3075 3075 3075 3074 3074 3073 3071 3071 3071 3071 3070 3069 3069 3072 3074 3073 3074 3078 3080 3080 3080 3080 3081 3082 3083 3085 3086 3086 3087 3088 3089 3089 3089 3090 3089 3089 3090 3090 3090 3091 3091 3091 3091 3090 3090 3090 3090 3091 3091 3091 3092 3093 3093 3094 3096 3097 3097 3098 3099 3099
3093 3092 3092 3091 3089 3088 3087 3087 3086 3085 3085 3085 3084 3083 3082 3081 3080 3079 3078 3077 3075 3074 3073 3073 3072 3071 3071 3071 3070 3070 3069 3068 3067 3067 3065 3065 3064 3062 3064 3066 3065 3066 3071 3072 3072 3073 3073 3074 3076 3077 3079 3080 3081 3082 3083 3084 3084 3085 3084 3084 3085 3085 3085 3086 3086 3087 3087 3087 3087 3086 3086 3086 3087 3087 3087 3087 3088 3089 3090 3091 3092 3093 3094 3095 3095
3089 3088 3088 3087 3086 3084 3083 3082 3081 3081 3080 3080 3079 3079 3078 3077 3076 3075 3073 3072 3071 3070 3069 3069 3068 3067 3066 3067 3066 3066 3065 3064 3063 3062 3060 3060 3058 3057 3058 3059 3058 3059 3062 3063 3064 3065 3066 3068 3070 3072 3073 3074 3075 3076 3078 3079 3080 3080 3079 3079 3080 3080 3081 3081 3082 3082 3082 3083 3083 3083 3083 3083 3083 3083 3083 3083 3084 3084 3085 3086 3087 3088 3089 3090 3091
3085 3084 3083 3082 3081 3080 3079 3078 3077 3076 3076 3075 3074 3073 3073 3072 3072 3070 3069 3067 3066 3065 3065 3064 3063 3062 3061 3061 3061 3061 3061 3060 3059 3058 3056 3055 3054 3052 3052 3052 3051 3051 3053 3054 3056 3057 3058 3062 3065 3066 3067 3069 3070 3071 3072 3074 3075 3075 3074 3073 3074 3075 3075 3076 3077 3077 3078 3078 3078 3078 3079 3079 3079 3079 3079 3079 3080 3080 3081 3082 3083 3084 3085 3086 3086
3080 3080 3079 3079 3078 3076 3075 3073 3072 3071 3071 3070 3069 3068 3068 3067 3066 3066 3064 3063 3062 3060 3059 3058 3058 3057 3056 3055 3055 3056 3055 3055 3054 3053 3052 3050 3049 3048 3047 3046 3045 3044 3045 3046 3047 3048 3051 3055 3058 3059 3061 3063 3064 3065 3066 3067 3069 3070 3069 3068 3068 3069 3070 3071 3072 3072 3073 3073 3074 3074 3074 3075 3075 3075 3075 3075 3076 3076 3077 3078 3078 3079 3080 3081 3082
3074 3074 3074 3073 3073 3072 3071 3069 3068 3067 3065 3064 3064 3063 3062 3061 3061 3060 3059 3058 3057 3056 3054 3053 3052 3051 3051 3050 3049 3050 3050 3049 3048 3048 3047 3046 3044 3044 3042 3041 3039 3038 3038 3038 3038 3040 3044 3048 3050 3052 3055 3057 3059 3060 3060 3061 3062 3064 3063 3063 3063 3064 3065 3066 3066 3067 3067 3068 3069 3069 3069 3070 3070 3070 3071 3071 3071 3072 3072 3073 3074 3075 3076 3077 3078
3068 3068 3067 3067 3067 3066 3066 3064 3063 3062 3061 3059 3058 3057 3056 3056 3055 3054 3053 3052 3052 3050 3049 3048 3047 3046 3045 3044 3043 3043 3043 3043 3043 3042 3041 3041 3040 3038 3037 3037 3034 3032 3031 3030 3031 3034 3037 3039 3042 3045 3049 3051 3053 3054 3054 3054 3056 3057 3057 3057 3057 3058 3059 3060 3060 3061 3062 3063 3063 3064 3064 3065 3066 3066 3066 3067 3067 3067 3068 3069 3070 3071 3072 3073 3073
3061 3061 3060 3060 3060 3060 3059 3059 3058 3057 3055 3054 3053 3052 3050 3049 3048 3048 3047 3046 3046 3044 3043 3042 3041 3040 3040 3039 3038 3037 3036 3036 3036 3035 3035 3035 3034 3034 3032 3032 3030 3027 3026 3023 3023 3027 3030 3031 3034 3037 3041 3044 3046 3048 3048 3048 3049 3049 3050 3051 3052 3052 3053 3053 3054 3055 3056 3057 3058 3058 3059 3060 3061 3061 3062 3062 3063 3063 3064 3064 3065 3067 3068 3069 3069
3056 3055 3054 3053 3053 3052 3052 3052 3051 3051 3049 3048 3047 3046 3044 3043 3042 3041 3040 3039 3039 3038 3037 3036 3035 3034 3034 3034 3033 3031 3030 3029 3029 3028 3028 3028 3028 3028 3027 3026 3025 3023 3022 3018 3015 3019 3023 3024 3027 3030 3032 3035 3038 3039 3040 3042 3042 3042 3043 3044 3046 3047 3047 3047 3048 3049 3050 3051 3052 3053 3054 3055 3056 3057 3057 3058 3058 3059 3059 3060 3061 3062 3063 3064 3065
3052 3050 3049 3048 3047 3046 3045 3045 3044 3044 3043 3042 3040 3039 3038 3037 3035 3034 3033 3032 3032 3031 3031 3030 3029 3028 3028 3028 3027 3026 3024 3023 3023 3022 3022 3021 3020 3020 3020 3020 3020 3018 3018 3014 3010 3012 3016 3018 3020 3022 3023 3026 3028 3030 3032 3034 3036 3036 3036 3038 3040 3040 3040 3040 3042 3043 3044 3045 3047 3048 3048 3049 3051 3052 3053 3054 3054 3054 3055 3055 3056 3057 3058 3059 3060
3046 3045 3044 3042 3041 3040 3039 3038 3037 3036 3036 3035 3034 3033 3032 3031 3029 3028 3026 3025 3025 3024 3023 3023 3023 3021 3020 3020 3020 3020 3018 3017 3017 3016 3015 3015 3014 3013 3013 3012 3013 3013 3011 3009 3006 3006 3009 3012 3013 3014 3016 3017 3019 3021 3024 3026 3029 3030 3030 3031 3033 3033 3033 3034 3035 3037 3038 3039 3041 3042 3043 3044 3045 3046 3048 3049 3049 3050 3050 3051 3051 3052 3053 3054 3055
3040 3038 3037 3036 3035 3034 3033 3032 3031 3029 3028 3028 3027 3026 3026 3025 3024 3022 3020 3019 3017 3017 3016 3015 3015 3015 3014 3013 3013 3013 3011 3010 3010 3009 3009 3009 3007 3007 3007 3005 3005 3006 3005 3003 3002 3000 3001 3005 3006 3007 3009 3009 3010 3013 3015 3018 3021 3023 3024 3024 3025 3026 3028 3028 3029 3030 3031 3033 3034 3036 3037 3038 3039 3040 3042 3043 3044 3045 3045 3046 3046 3047 3048 3049 3050
3035 3033 3031 3030 3028 3027 3026 3025 3024 3023 3021 3020 3020 3019 3018 3017 3016 3015 3014 3013 3011 3010 3009 3008 3007 3006 3006 3006 3005 3005 3004 3003 3003 3003 3001 3001 3000 3000 3000 2999 2998 2999 2998 2997 2996 2995 2995 2997 2998 2999 3001 3002 3003 3005 3007 3009 3012 3014 3015 3016 3017 3019 3021 3021 3022 3023 3025 3026 3027 3029 3030 3032 3033 3034 3036 3037 3038 3039 3040 3040 3041 3042 3043 3044 3045
3030 3029 3027 3025 3023 3021 3020 3018 3017 3016 3014 3013 3012 3011 3010 3008 3007 3006 3006 3005 3004 3003 3002 3001 3000 2998 2997 2997 2998 2997 2996 2996 2996 2996 2994 2993 2993 2992 2993 2993 2992 2991 2991 2989 2989 2989 2988 2988 2991 2992 2992 2994 2996 2998 2998 2999 3002 3004 3006 3008 3009 3011 3013 3014 3015 3016 3017 3019 3020 3022 3024 3025 3027 3028 3030 3031 3033 3034 3035 3035 3036 3036 3037 3039 3040
3025 3023 3022 3020 3018 3016 3015 3013 3011 3009 3008 3006 3005 3004 3002 3000 2998 2996 2995 2994 2994 2993 2993 2993 2992 2991 2990 2989 2990 2989 2988 2987 2988 2988 2987 2986 2985 2984 2985 2985 2985 2984 2983 2982 2982 2982 2980 2981 2983 2984 2984 2986 2988 2990 2990 2991 2992 2995 2997 3000 3001 3002 3004 3005 3007 3008 3010 3012 3013 3015 3017 3019 3020 3022 3023 3025 3027 3028 3029 3029 3030 3031 3032 3033 3034
3019 3017 3016 3014 3012 3011 3009 3007 3005 3003 3001 3000 2998 2996 2994 2992 2989 2988 2986 2984 2983 2983 2983 2983 2983 2982 2982 2982 2982 2982 2980 2978 2978 2978 2978 2977 2977 2976 2977 2977 2977 2976 2975 2975 2975 2974 2973 2974 2975 2976 2977 2978 2979 2981 2983 2984 2984 2986 2988 2991 2993 2994 2995 2997 2999 3001 3003 3005 3007 3009 3011 3012 3014 3015 3017 3019 3020 3022 3023 3024 3025 3026 3027 3027 3028
3012 3011 3009 3007 3006 3004 3002 3000 2998 2996 2994 2993 2990 2988 2985 2982 2980 2978 2977 2976 2974 2973 2973 2973 2973 2972 2972 2972 2973 2973 2972 2970 2969 2969 2968 2967 2967 2967 2968 2968 2968 2968 2968 2968 2967 2966 2966 2966 2967 2968 2969 2970 2971 2972 2975 2976 2976 2977 2979 2980 2982 2984 2986 2989 2992 2995 2997 2998 3000 3001 3003 3005 3006 3008 3010 3011 3013 3015 3017 3018 3020 3020 3021 3022 3023
3006 3004 3002 3000 2999 2997 2995 2993 2991 2989 2987 2986 2983 2980 2976 2973 2970 2968 2966 2965 2964 2963 2963 2963 2963 2962 2962 2962 2962 2962 2962 2961 2960 2960 2959 2958 2957 2957 2959 2959 2958 2958 2959 2960 2960 2959 2958 2958 2959 2961 2961 2961 2963 2964 2966 2966 2967 2969 2971 2971 2972 2976 2979 2982 2985 2988 2990 2991 2992 2993 2994 2997 2998 3000 3002 3004 3006 3009 3010 3012 3014 3015 3016 3017 3018
3000 2998 2996 2994 2992 2990 2989 2987 2985 2983 2980 2979 2976 2972 2968 2964 2961 2958 2956 2954 2952 2951 2951 2951 2952 2952 2952 2952 2952 2952 2952 2951 2951 2950 2950 2950 2948 2947 2949 2950 2948 2947 2948 2949 2950 2951 2951 2950 2951 2953 2952 2952 2954 2956 2957 2958 2960 2962 2964 2963 2965 2969 2971 2974 2976 2979 2982 2983 2984 2985 2986 2988 2991 2993 2996 2998 3000 3002 3004 3006 3008 3009 3011 3012 3013
2995 2992 2991 2989 2986 2984 2982 2980 2978 2976 2974 2972 2969 2964 2960 2956 2952 2949 2946 2944 2943 2941 2939 2939 2939 2940 2940 2940 2940 2940 2940 2940 2940 2940 2940 2940 2939 2938 2939 2940 2938 2937 2938 2938 2939 2941 2941 2941 2943 2945 2943 2943 2947 2948 2948 2950 2953 2953 2954 2955 2957 2960 2961 2963 2966 2969 2972 2974 2975 2976 2978 2981 2983 2986 2988 2991 2993 2995 2996 2999 3002 3004 3007 3008 3009
2988 2986 2984 2982 2980 2977 2974 2972 2970 2968 2966 2965 2961 2956 2952 2948 2943 2939 2936 2934 2933 2931 2929 2928 2927 2928 2928 2927 2926 2927 2927 2928 2928 2929 2929 2929 2929 2929 2929 2929 2929 2928 2927 2928 2929 2930 2931 2931 2933 2935 2934 2934 2939 2940 2939 2942 2943 2942 2945 2947 2948 2950 2951 2952 2955 2959 2962 2965 2966 2967 2971 2974 2976 2978 2981 2984 2986 2987 2989 2992 2996 2999 3001 3003 3003
2980 2979 2977 2974 2972 2970 2966 2963 2961 2958 2957 2955 2950 2945 2942 2939 2934 2929 2925 2923 2922 2920 2919 2917 2916 2916 2916 2915 2914 2913 2914 2914 2915 2915 2916 2917 2918 2918 2918 2918 2918 2918 2918 2918 2919 2920 2920 2920 2922 2925 2925 2927 2930 2931 2930 2932 2933 2933 2936 2938 2938 2941 2942 2942 2946 2949 2953 2957 2957 2959 2963 2967 2969 2970 2973 2976 2978 2980 2982 2985 2988 2992 2994 2996 2997
2973 2971 2969 2966 2964 2961 2956 2953 2951 2948 2946 2942 2937 2933 2930 2926 2923 2918 2914 2912 2911 2909 2908 2906 2905 2904 2903 2902 2901 2901 2902 2902 2901 2901 2901 2903 2904 2905 2905 2906 2906 2906 2907 2908 2909 2910 2910 2910 2910 2913 2918 2920 2920 2922 2923 2922 2923 2924 2926 2928 2930 2932 2932 2934 2938 2940 2943 2946 2949 2951 2954 2958 2960 2961 2963 2967 2970 2972 2974 2977 2980 2984 2987 2989 2991
2966 2964 2961 2958 2955 2951 2947 2943 2940 2938 2935 2930 2925 2921 2917 2913 2910 2905 2902 2900 2898 2897 2896 2895 2893 2892 2891 2889 2887 2887 2889 2889 2889 2888 2887 2887 2887 2888 2890 2891 2893 2894 2895 2896 2898 2899 2900 2900 2899 2902 2909 2911 2910 2913 2915 2913 2912 2914 2916 2918 2921 2922 2923 2926 2930 2930 2931 2935 2940 2942 2943 2947 2950 2950 2953 2958 2961 2963 2967 2970 2973 2977 2980 2982 2984
2959 2956 2953 2950 2946 2942 2938 2933 2929 2927 2925 2919 2913 2910 2905 2900 2896 2892 2889 2886 2885 2884 2883 2883 2881 2879 2879 2877 2875 2874 2874 2875 2876 2876 2874 2872 2871 2871 2872 2875 2878 2881 2883 2884 2886 2888 2889 2889 2889 2892 2898 2901 2901 2903 2905 2903 2902 2905 2906 2908 2911 2913 2913 2916 2918 2918 2919 2924 2928 2928 2930 2936 2939 2939 2943 2949 2951 2954 2959 2962 2965 2968 2971 2973 2976
2951 2948 2945 2941 2937 2932 2929 2924 2919 2917 2914 2908 2901 2897 2892 2886 2882 2878 2875 2872 2871 2870 2869 2869 2867 2866 2866 2864 2862 2861 2860 2860 2862 2862 2860 2858 2856 2856 2856 2858 2861 2864 2867 2872 2876 2877 2877 2878 2879 2881 2886 2890 2891 2892 2894 2894 2893 2895 2897 2898 2899 2901 2902 2903 2906 2908 2910 2913 2915 2917 2921 2925 2927 2929 2934 2939 2940 2944 2949 2951 2955 2959 2961 2964 2967
2943 2940 2936 2932 2928 2923 2919 2915 2910 2906 2903 2897 2890 2884 2880 2874 2869 2866 2863 2861 2860 2858 2857 2857 2855 2854 2853 2851 2849 2847 2846 2847 2848 2848 2847 2845 2843 2842 2843 2843 2845 2847 2850 2858 2863 2865 2866 2867 2868 2870 2874 2879 2881 2882 2884 2884 2884 2886 2887 2886 2888 2891 2892 2893 2895 2899 2901 2903 2907 2911 2912 2914 2918 2922 2926 2928 2930 2934 2938 2941 2945 2949 2952 2955 2958
2935 2931 2927 2923 2919 2914 2910 2906 2901 2895 2892 2886 2878 2873 2870 2865 2860 2857 2854 2852 2850 2849 2847 2847 2845 2843 2842 2841 2838 2836 2834 2835 2835 2834 2834 2832 2829 2829 2830 2830 2831 2831 2835 2843 2848 2850 2853 2855 2856 2858 2861 2866 2869 2870 2872 2874 2875 2876 2875 2875 2880 2883 2882 2882 2885 2890 2891 2893 2899 2902 2902 2905 2911 2914 2916 2918 2920 2924 2928 2931 2935 2939 2942 2945 2947
2926 2923 2918 2914 2910 2906 2901 2897 2892 2885 2880 2875 2869 2864 2861 2858 2853 2850 2847 2844 2842 2840 2839 2838 2836 2835 2833 2831 2830 2827 2825 2824 2824 2822 2822 2819 2816 2816 2817 2816 2816 2818 2824 2831 2833 2835 2839 2842 2844 2847 2849 2853 2857 2859 2860 2863 2866 2866 2865 2867 2871 2873 2871 2872 2877 2879 2879 2882 2890 2893 2891 2896 2902 2902 2905 2909 2910 2913 2918 2922 2925 2930 2934 2936 2938